Change the Weather History Date:

Monday, March 24, 2014

  Actual Average Record
Temperature  
Mean Temperature 69 °F 71 °F  
Max Temperature 73 °F 81 °F 92 °F (1949)
Min Temperature 65 °F 60 °F 40 °F (1950)
Degree Days  
Heating Degree Days 0 0  
Month to date heating degree days 3 21  
Since 1 July heating degree days 172 281  
Cooling Degree Days 4 6  
Month to date cooling degree days 132 130  
Year to date cooling degree days 393 315  
Growing Degree Days 18 (Base 50)    
Moisture  
Dew Point 66 °F    
Average Humidity 91    
Maximum Humidity 100    
Minimum Humidity 84    
Precipitation  
Precipitation 0.94 in 0.10 in 1.92 in (1983)
Month to date precipitation 1.91 2.27  
Year to date precipitation 5.35 6.36  
Sea Level Pressure  
Sea Level Pressure 30.00 in    
Wind  
Wind Speed 6 mph (North)    
Max Wind Speed 17 mph    
Max Gust Speed 21 mph    
Visibility 8 miles    
Events Rain , Thunderstorm    
T = Trace of Precipitation, MM = Missing Value Source: NWS Daily Summary

Daily Weather History Graph

Daily Weather History Graph

Search for Another Location

Airport or City:

Trip Planner

Search our weather history database for the weather conditions in past years. The results will help you decide how hot, cold, wet, or windy it might be!

Date:

Astronomy

Mar. 24, 2014 Rise Set
Actual Time 7:27 AM EDT 7:40 PM EDT
Civil Twilight 7:03 AM EDT 8:03 PM EDT
Nautical Twilight 6:36 AM EDT 8:30 PM EDT
Astronomical Twilight 6:09 AM EDT 8:58 PM EDT
Moon 2:25 AM EDT (3/24) 1:34 PM EDT (3/24)
Length of Visible Light 12h 59m
Length of Day
12h 13m
Last Quarter, 43% of the Moon is Illuminated
Mar 24
Last Quarter
Mar 30
New
Apr 7
First Quarter
Apr 15
Full
Apr 22
Last Quarter

Hourly Weather History & Observations

Time (EDT) Temp. Dew Point Humidity Pressure Visibility Wind Dir Wind Speed Gust Speed Precip Events Conditions
12:12 AM 73.9 °F 70.0 °F 87% 30.03 in 10.0 mi West 9.2 mph - N/A   Mostly Cloudy
12:27 AM 73.0 °F 70.0 °F 90% 30.03 in 10.0 mi West 6.9 mph - N/A   Mostly Cloudy
12:39 AM 73.0 °F 70.0 °F 90% 30.03 in 10.0 mi WNW 8.1 mph - N/A   Mostly Cloudy
12:53 AM 73.0 °F 69.1 °F 87% 30.03 in 10.0 mi WNW 5.8 mph - N/A   Scattered Clouds
1:53 AM 72.0 °F 69.1 °F 91% 30.03 in 10.0 mi NNW 6.9 mph - N/A   Partly Cloudy
2:53 AM 71.1 °F 68.0 °F 90% 30.02 in 10.0 mi NNW 9.2 mph - N/A   Clear
3:53 AM 70.0 °F 68.0 °F 93% 30.01 in 10.0 mi NW 4.6 mph - N/A   Clear
4:16 AM 70.0 °F 68.0 °F 93% 30.00 in 10.0 mi NW 3.5 mph - N/A   Partly Cloudy
4:35 AM 70.0 °F 68.0 °F 93% 30.01 in 10.0 mi NW 9.2 mph - N/A   Mostly Cloudy
4:53 AM 71.1 °F 68.0 °F 90% 30.02 in 10.0 mi NNW 9.2 mph - N/A   Overcast
5:33 AM 70.0 °F 66.0 °F 87% 30.03 in 10.0 mi North 16.1 mph - N/A   Overcast
5:53 AM 70.0 °F 64.9 °F 84% 30.03 in 10.0 mi North 9.2 mph - N/A   Overcast
6:53 AM 70.0 °F 64.9 °F 84% 30.04 in 10.0 mi North 6.9 mph - N/A   Overcast
7:53 AM 70.0 °F 66.0 °F 87% 30.02 in 10.0 mi ENE 3.5 mph - N/A   Clear
8:53 AM 70.0 °F 64.9 °F 84% 30.06 in 10.0 mi NNE 8.1 mph - N/A   Overcast
9:53 AM 70.0 °F 66.0 °F 87% 30.05 in 10.0 mi NE 9.2 mph - 0.01 in   Partly Cloudy
10:53 AM 70.0 °F 64.9 °F 84% 30.09 in 6.0 mi NNW 4.6 mph - 0.01 in Rain Light Rain
11:53 AM 70.0 °F 64.9 °F 84% 30.06 in 10.0 mi East 3.5 mph - 0.02 in Rain Light Rain
12:53 PM 70.0 °F 64.0 °F 81% 30.06 in 10.0 mi North 6.9 mph - 0.02 in Rain Light Rain
1:53 PM 69.1 °F 64.9 °F 87% 30.04 in 5.0 mi North 8.1 mph - 0.05 in Rain Light Rain
2:20 PM 69.1 °F 66.0 °F 90% 29.99 in 3.0 mi ENE 5.8 mph - 0.04 in Rain Rain
2:53 PM 69.1 °F 66.0 °F 90% 29.97 in 9.0 mi ENE 4.6 mph - 0.04 in   Overcast
3:12 PM 69.1 °F 66.0 °F 90% 29.97 in 2.5 mi South 4.6 mph - 0.01 in Rain Rain
3:22 PM 69.1 °F 64.9 °F 87% 29.97 in 3.0 mi Calm Calm - 0.04 in Rain Light Rain
3:53 PM 68.0 °F 66.0 °F 93% 29.96 in 6.0 mi NNE 5.8 mph - 0.07 in Rain Light Rain
4:00 PM 68.0 °F 64.9 °F 90% 29.95 in 7.0 mi NNW 4.6 mph - 0.00 in Rain Light Rain
4:10 PM 68.0 °F 64.9 °F 90% 29.95 in 10.0 mi North 5.8 mph - 0.00 in   Overcast
4:33 PM 68.0 °F 66.0 °F 93% 29.95 in 10.0 mi NNE 5.8 mph - 0.00 in   Overcast
4:53 PM 68.0 °F 66.0 °F 93% 29.95 in 10.0 mi NNE 6.9 mph - 0.00 in   Overcast
5:15 PM 68.0 °F 66.0 °F 93% 29.95 in 5.0 mi North 8.1 mph - 0.01 in Rain Light Rain
5:53 PM 66.9 °F 64.9 °F 93% 29.95 in 10.0 mi ENE 5.8 mph - 0.02 in   Overcast
6:11 PM 66.9 °F 64.9 °F 93% 29.93 in 10.0 mi East 4.6 mph - 0.00 in   Overcast
6:53 PM 66.9 °F 64.9 °F 93% 29.97 in 10.0 mi North 4.6 mph - 0.00 in   Overcast
7:20 PM 66.9 °F 64.9 °F 93% 29.95 in 8.0 mi ENE 5.8 mph - 0.01 in Rain Light Rain
7:53 PM 66.9 °F 64.9 °F 93% 29.96 in 10.0 mi ENE 4.6 mph - 0.02 in   Overcast
8:02 PM 66.9 °F 66.0 °F 97% 29.95 in 10.0 mi NE 5.8 mph - N/A   Overcast
8:11 PM 66.9 °F 64.9 °F 93% 29.95 in 8.0 mi ENE 4.6 mph - 0.00 in Rain Light Rain
8:51 PM 66.2 °F 64.4 °F 94% 29.97 in 2.5 mi Calm Calm - 0.17 in Rain Rain
8:53 PM 66.9 °F 64.9 °F 93% 29.99 in 3.0 mi Calm Calm - 0.18 in Rain Rain
9:01 PM 66.0 °F 64.9 °F 96% 29.98 in 2.0 mi Calm Calm - 0.04 in Rain Rain
9:12 PM 66.0 °F 64.0 °F 93% 29.97 in 4.0 mi Calm Calm - 0.06 in Rain Light Rain
9:49 PM 66.2 °F 64.4 °F 94% 29.99 in 1.8 mi WSW 3.5 mph - 0.19 in Rain Heavy Rain
9:53 PM 64.9 °F 64.0 °F 97% 29.99 in 1.5 mi Calm Calm - 0.23 in Rain Heavy Rain
10:01 PM 64.9 °F 64.0 °F 97% 29.99 in 3.0 mi Calm Calm - 0.04 in Rain Light Rain
10:13 PM 64.9 °F 64.0 °F 97% 29.99 in 2.5 mi West 3.5 mph - 0.07 in Rain , Thunderstorm Rain
10:22 PM 64.9 °F 64.0 °F 97% 29.99 in 4.0 mi Calm Calm - 0.09 in Rain Light Rain
10:53 PM 64.9 °F 64.0 °F 97% 30.01 in 4.0 mi West 6.9 mph - 0.16 in Rain Light Rain
11:34 PM 64.9 °F 64.0 °F 97% 29.99 in 9.0 mi Calm Calm - 0.05 in Rain Light Rain
11:53 PM 64.9 °F 64.0 °F 97% 29.99 in 8.0 mi SSW 3.5 mph - 0.08 in Rain Light Rain